www.pogodaiklimat.ru

Погода и климат >> Архив погоды >> Россия >> Нижегородская область >> Павлово


ПОГОДА в Павлово

  • Прогноз погоды в Павлово
  • Монитор погоды в Павлово
  • Климат города

АРХИВ ПОГОДЫ в Павлово

Время (UTC), дата Ветер
(напр.,м/с)
 
Видим.   Явления Облачность Т
(С)
Тd
(С)
f
(%)
Тe
(С)
Тes
(С)
Комфортность P
(гПа)
Po
(гПа)
Тmin
(С)
Tmax
(С)
R
(мм)
R24
(мм)
S
(см)
21 9.08 штиль 0
{2}
20 км ясно +13.0 +10.3 84 +13 +13 1025.8 1009.9
00 10.08 штиль 0
{2}
20 км ясно +11.6 +9.2 85 +11 +11 1026.3 1010.3
03 10.08 штиль 0
{2}
50 км 8/0
[Ac trans]
+13.1 +10.6 85 +13 +13 1026.5 1010.6 +11.4
06 10.08 З 1-3
{4}
50 км 1/0
[Ci fib]
+19.2 +13.0 67 +22 +30 комфорт 1026.4 1010.8
09 10.08 З 3-6
{7}
50 км 1/0
[Ci fib]
+24.5 +13.1 49 +27 +37 жарко 1025.4 1010.1
12 10.08 СЗ 3-6
{6}
50 км 1/1 1000 м
[Cu hum]
+26.8 +12.8 42 +28 +35 жарко 1024.0 1008.8
15 10.08 З 2-4
{6}
50 км 8/0
[Ci]
+26.0 +14.3 48 +28 +29 жарко 1022.9 1007.7 +27.3
18 10.08 З 2-4
{5}
50 км 8/0
[Ci fib]
+19.9 +14.8 72 +23 +23 комфорт 1023.3 1007.8
21 10.08 З 2-4
{4}
20 км ясно +19.8 +14.7 72 +22 +22 комфорт 1023.5 1008.0
00 11.08 З 2-4
{4}
20 км ясно +18.6 +14.7 78 +20 +20 1023.2 1007.6
03 11.08 З 2-5
{5}
50 км ясно +17.2 +14.0 81 +18 +18 1023.3 1007.6 +17.0
06 11.08 З 2-4
{5}
50 км ясно +21.1 +14.5 66 +24 +31 комфорт 1022.7 1007.3
09 11.08 З 3-7
{7}
50 км 3/3 600 м
[Cu hum]
+26.3 +14.5 48 +29 +36 жарко 1021.4 1006.3
12 11.08 З 4-9
{9}
50 км ясно +27.3 +12.8 41 +29 +34 жарко 1020.0 1004.9
15 11.08 З 3-6
{9}
50 км ясно +26.3 +12.3 42 +28 +29 жарко 1018.6 1003.5 +27.7
18 11.08 штиль 0
{6}
20 км ясно +19.7 +13.4 67 +21 +21 комфорт 1018.6 1003.2
21 11.08 штиль 0
{3}
20 км ясно +17.3 +12.6 74 +17 +17 1018.7 1003.1
00 12.08 штиль 0
{2}
20 км ясно +16.0 +12.4 79 +16 +16 1018.1 1002.5
03 12.08 штиль 0
{1}
50 км ясно +15.3 +12.2 82 +15 +16 1017.9 1002.3 +14.9
06 12.08 З 1-3
{3}
50 км ясно +22.5 +16.9 71 +27 +36 душно 1016.2 1001.0
09 12.08 З 2-6
{7}
50 км 1/1 1000 м
[Cu hum]
+26.2 +12.6 43 +28 +39 жарко 1015.1 1000.1
12 12.08 З 2-5
{8}
50 км 3/0
[Ci fib]
+27.6 +12.3 39 +29 +36 жарко 1013.5 998.6
15 12.08 З 2-4
{8}
50 км 3/0
[Ci fib]
+27.0 +13.7 44 +29 +30 жарко 1011.8 996.9 +28.0
18 12.08 штиль 0
{4}
50 км 3/0
[Ci fib]
+20.7 +14.6 68 +23 +23 комфорт 1010.8 995.6
21 12.08 штиль 0
{2}
20 км 3/0
[Ci sp]
+18.3 +13.7 75 +19 +19 1010.4 994.9
00 13.08 З 3-5
{5}
20 км 5/5 1000 м
[Sc]
+17.5 +13.2 76 +18 +18 1009.9 994.6
03 13.08 З 2-4
{7}
50 км 9/0
[Ci]
+17.0 +11.3 69 +17 +18 1010.4 995.0 +16.6
06 13.08 З 2-5
{7}
50 км 3/0
[Ci fib]
+20.4 +12.2 59 +23 +30 комфорт 1010.2 995.0
09 13.08 З 4-7
{11}
50 км 6/4 1000 м
[Cu Sc Ci fib]
+23.1 +8.0 38 +24 +29 комфорт 1009.9 994.8
12 13.08 З 3-6
{10}
50 км 8/5 600 м
[Cu hum Ci fib]
+22.2 +8.0 40 +23 +26 комфорт 1009.6 994.5
15 13.08 З 4-8
{9}
50 км 9/4 1000 м
[Cu hum Ci]
+21.4 +8.5 44 +23 +23 комфорт 1009.1 993.9 +23.6
18 13.08 З 3-5
{8}
20 км 6/3 1000 м
[Cu hum Ci]
+18.0 +8.5 54 +18 +18 1009.5 994.2
21 13.08 З 1-3
{6}
20 км ясно +14.5 +8.5 67 +15 +15 1010.1 994.5
00 14.08 З 1-3
{5}
20 км 3/0
[Ci fib]
+14.1 +8.5 69 +15 +15 1010.4 994.8
03 14.08 З 2-3
{4}
50 км 4/0
[Ac trans]
+11.9 +8.9 82 +11 +11 1011.9 996.2 +12.0
06 14.08 З 3-5
{6}
50 км 1/1 600 м
[Cu med, cong]
+16.7 +12.0 74 +16 +22 1012.7 997.3
09 14.08 З 3-7
{7}
50 км 4/4 600 м
[Cu med, cong]
+20.8 +9.7 49 +23 +29 комфорт 1013.2 997.9
12 14.08 З 3-6
{8}
50 км 6/6 600 м
[Cu med, cong]
+22.5 +9.2 43 +24 +27 комфорт 1013.3 998.1
15 14.08 З 3-6
{8}
50 км 3/3 600 м
[Sc diur, vesp]
+22.6 +9.7 44 +24 +25 комфорт 1013.6 998.4 +23.6
18 14.08 Ю 1-1
{6}
20 км 1/1 1000 м
[Sc diur, vesp]
+16.4 +10.2 67 +17 +17 1015.0 999.5
21 14.08 штиль 0
{2}
20 км ясно +15.5 +9.9 69 +15 +15 1015.9 1000.9
00 15.08 штиль 0
{1}
20 км 8/0
[Ac trans]
+13.2 +9.7 79 +13 +13 1016.2 1000.5
03 15.08 ЮВ 1
{2}
50 км 10/8 600 м
[Cu hum Ci fib]
+13.3 +10.4 83 +13 +14 1016.8 1001.1 +12.2
06 15.08 З 1-3
{3}
50 км 1/0
[Ci fib]
+21.0 +13.1 61 +25 +33 комфорт 1016.0 1000.7
09 15.08 ЮВ 1-3
{5}
50 км 8/0
[Ac trans Ci]
+24.2 +10.3 41 +25 +35 комфорт 1015.0 999.9
12 15.08 Ю 1-5
{5}
50 км 9/3 1000 м
[Cu hum Ac As Ci]
+26.7 +14.1 46 +29 +33 жарко 1012.6 997.6
15 15.08 З 1-4
{8}
50 км 9/5 1000 м
[Cu Sc Ac trans Ci fib]
+22.6 +16.5 68 +27 +27 душно 1012.2 997.1 +27.1
18 15.08 ЮВ 1-3
{6}
20 км 10/3 1000 м
[Sc Ac As]
+20.2 +16.8 81 +24 +24 комфорт 1010.7 995.5
21 15.08 З 1-4
{11}
20 км слабый ливневой дождь, в посл. час гроза 10/5 600 м
[Cb cap As op]
+18.2 +17.2 94 +20 +20 1009.8 994.5
00 16.08 ЮЗ 1-5
{7}
20 км {гроза, ливн. осадки} 8/0
[Ac trans]
+17.8 +16.1 90 +19 +19 1010.2 994.9
03 16.08 З 1-2
{5}
50 км 8/0
[Cc]
+17.1 +16.6 97 +18 +19 1010.8 995.5 +16.7 4
06 16.08 З 2-4
{8}
50 км 10/10 600 м
[Sc]
+18.5 +17.2 92 +20 +20 1012.1 996.8
09 16.08 З 4-8
{8}
50 км 9/9 600 м
[Cb calv]
+21.2 +16.3 74 +25 +25 комфорт 1013.1 997.9
12 16.08 СЗ 4-8
{8}
50 км 9/9 600 м
[Cb calv]
+22.0 +16.0 69 +26 +26 душно 1014.2 999.0
15 16.08 С 2-5
{8}
50 км {ливн. осадки} 10/10 600 м
[Cb calv]
+18.0 +16.7 92 +19 +19 1016.0 1000.6 +23.8 1
18 16.08 С 1-3
{5}
20 км {ливн. осадки} 9/9 600 м
[Sc]
+15.5 +14.1 91 +16 +16 1017.7 1002.2

 

Местоположение метеостанции Павлово (Нижегородская область, Россия): широта 55.95 долгота 43.03 высота над уровнем моря 131 м.

В архиве по умолчанию представлена погода в Павлово за последнюю неделю. Архивные данные за месяц целиком и за предыдущие месяцы, начиная с января 2011 года, Вы можете получить, выбрав интересующий диапазон дат из раскрывающегося списка и нажав кнопку "Ввод!".


*Определитесь, кто Вы:
робот инопланетянин человек

Внимание! Время в таблицах - всемирное. Для получения местного времени необходимо прибавить поправку, которая в Павлово равна 3 ч.

Смотрите также архив погоды в соседних городах и на ближайших метеорологических станциях:

Погода в Нижнем Новгороде аэропорт (Нижегородская область, Россия) (55 км)
Погода в Балахне (Нижегородская область, Россия) (59 км)
Погода в Вязниках (Владимирская область, Россия) (60 км)
Погода в Дальнем Константиново (Нижегородская область, Россия) (68 км)
Погода в Нижнем Новгороде (Нижегородская область, Россия) (70 км)
Погода в Муроме (Владимирская область, Россия) (74 км)
Погода в Арзамасе (Нижегородская область, Россия) (80 км)
Погода в Волжской ГМО (Нижегородская область, Россия) (85 км)
Погода в Выксе (Нижегородская область, Россия) (90 км)
Погода в Коврове (Владимирская область, Россия) (114 км)

Пояснения к столбцам:

Ветер - указаны скорость ветра в м/с - средняя за 10 мин, порывы в срок и между сроками (в фигурных скобках) и направление, откуда дует ветер: С - северный, СВ - северо-восточный, В - восточный, ЮВ - юго-восточный, Ю - южный, ЮЗ - юго-западный, З - западный, СЗ - северо-западный.
Видимость - горизонтальная дальность видимости в метрах или километрах. При видимости от 1 до 10 км при отсутствии осадков обычно наблюдается дымка, при ухудшении видимости до 1 км и менее - туман. В сухую погоду видимость может ухудшаться дымом, пылью или мглою.
Явления - указаны атмосферные явления, наблюдавшиеся в срок или в последний час перед сроком; фигурными скобками обозначены явления, наблюдавшиеся между сроками (за 1-3 часа до срока); квадратными скобками обозначены град или гололедные отложения с указанием их диаметра в мм.
Облачность - указаны через наклонную черту общая и нижняя облачность в баллах и высота нижней границы облаков в метрах; квадратными скобками обозначены формы облаков: Ci - перистые, Cs - перисто-слоистые, Cc - перисто-кучевые, Ac - высококучевые, As - высокослоистые, Sc - слоисто-кучевые, Ns - слоисто-дождевые, Cu - кучевые, Cb - кучево-дождевые. Подробнее классификацию облаков см. в Атласе облаков (PDF).
T - Температура воздуха - температура, измеренная на высоте 2 м над землей.
Td - Температура точки росы - температура, при понижении до которой содержащийся в воздухе водяной пар достигнет насыщения.
f - Относительная влажность воздуха - влажноcть воздуха, измеренная на высоте 2 м над землей.
Te - Эффективная температура - температура, которую ощущает одетый по сезону человек в тени. Характеристика душности погоды. При расчете учитывается влияние влажности воздуха и скорости ветра на теплоощущения человека.
Tes - Эффективная температура на солнце - температура, которую ощущает человек, с поправкой на солнечный нагрев. Характеристика знойности погоды. Зависит от высоты солнца над горизонтом, облачности и скорости ветра. Ночью, в пасмурную погоду, а также при ветре 12 м/с и более поправка равна нулю.
P - Атмосферное давление - приведенное к уровню моря атмосферное давление.
Po - Атмосферное давление - измеренное на уровне метеостанции атмосферное давление.
Tmin - Минимальная температура - минимум температуры воздуха на высоте 2 м над землей.
Tmax - Максимальная температура - максимум температуры воздуха на высоте 2 м над землей.
R - Количество осадков - Количество выпавших осадков за период времени, мм. При наведении курсора мыши на число - период времени, за который выпало указанное количество осадков.
R24 - Количество осадков - Количество выпавших осадков за 24 часа, мм.
S - Снежный покров - Высота снежного покрова, см. При наведении курсора мыши на число - состояние снежного покрова и степень покрытия местности в баллах.